Weather History for Jesup, GA

Change the Weather History Date:

Friday, February 1, 2013

  Actual Average (KLHW) Record (KLHW)
Temperature  
Mean Temperature 45 °F -  
Max Temperature 60 °F 65 °F 84 °F (2002)
Min Temperature 30 °F 39 °F 22 °F (1977)
Degree Days  
Heating Degree Days 20    
Moisture  
Dew Point 30 °F    
Average Humidity 62    
Maximum Humidity 100    
Minimum Humidity 29    
Precipitation  
Precipitation 0.00 in - - ()
Sea Level Pressure  
Sea Level Pressure 30.28 in    
Wind  
Wind Speed 5 mph (NW)    
Max Wind Speed 18 mph    
Max Gust Speed 28 mph    
Visibility 10 miles    
Events      
Averages and records for this station are not official NWS values.
T = Trace of Precipitation, MM = Missing Value Source: NWS Daily Summary

Daily Weather History Graph

Daily Weather History Graph

Search for Another Location

Airport:

Trip Planner

Search our weather history database for the weather conditions in past years. The results will help you decide how hot, cold, wet, or windy it might be!

Date:

Astronomy

Feb. 01, 2013 Rise Set
Actual Time 7:20 AM EST 6:02 PM EST
Civil Twilight 6:54 AM EST 6:28 PM EST
Nautical Twilight 6:25 AM EST 6:57 PM EST
Astronomical Twilight 5:56 AM EST 7:25 PM EST
Moon 11:41 PM EST (2/1) 10:17 AM EST (2/1)
Length of Visible Light 11h 33m
Length of Day
10h 42m
Waning Gibbous, 70% of the Moon is Illuminated
Feb 1
Waning Gibbous
Feb 3
Last Quarter
Feb 10
New
Feb 17
First Quarter
Feb 25
Full

Hourly Weather History & Observations

Time (EST) Temp. Windchill Dew Point Humidity Pressure Visibility Wind Dir Wind Speed Gust Speed Precip Events Conditions
12:15 AM 33.8 °F - 33.8 °F 100% 30.24 in 10.0 mi Calm Calm - N/A   Clear
12:35 AM 32.0 °F - 32.0 °F 100% 30.23 in 10.0 mi Calm Calm - N/A   Clear
1:15 AM 35.6 °F 31.7 °F 32.0 °F 87% 30.24 in 10.0 mi West 4.6 mph - N/A   Clear
1:35 AM 33.8 °F 30.8 °F 32.0 °F 93% 30.25 in 10.0 mi West 3.5 mph - N/A   Clear
1:55 AM 32.0 °F 28.7 °F 32.0 °F 100% 30.26 in 10.0 mi West 3.5 mph - N/A   Clear
2:15 AM 32.0 °F - 32.0 °F 100% 30.26 in 10.0 mi Calm Calm - N/A   Clear
2:35 AM 32.0 °F - 32.0 °F 100% 30.24 in 10.0 mi Calm Calm - N/A   Clear
2:55 AM 32.0 °F 28.7 °F 32.0 °F 100% 30.26 in 10.0 mi West 3.5 mph - N/A   Clear
3:15 AM 32.0 °F 28.7 °F 32.0 °F 100% 30.26 in 10.0 mi West 3.5 mph - N/A   Clear
3:35 AM 32.0 °F - 32.0 °F 100% 30.25 in 10.0 mi Calm Calm - N/A   Clear
3:55 AM 32.0 °F 28.7 °F 32.0 °F 100% 30.25 in 10.0 mi West 3.5 mph - N/A   Clear
4:15 AM 32.0 °F 28.7 °F 32.0 °F 100% 30.25 in 10.0 mi West 3.5 mph - N/A   Clear
4:35 AM 32.0 °F - 32.0 °F 100% 30.25 in 10.0 mi Calm Calm - N/A   Clear
4:55 AM 32.0 °F 27.5 °F 32.0 °F 100% 30.25 in 10.0 mi West 4.6 mph - N/A   Clear
5:15 AM 32.0 °F 28.7 °F 32.0 °F 100% 30.25 in 10.0 mi West 3.5 mph - N/A   Clear
5:35 AM 30.2 °F 26.7 °F 30.2 °F 100% 30.25 in 10.0 mi WSW 3.5 mph - N/A   Clear
5:55 AM 32.0 °F 28.7 °F 32.0 °F 100% 30.25 in 10.0 mi West 3.5 mph - N/A   Clear
6:15 AM 30.2 °F 26.7 °F 30.2 °F 100% 30.26 in 10.0 mi WSW 3.5 mph - N/A   Clear
6:35 AM 32.0 °F 28.7 °F 32.0 °F 100% 30.26 in 10.0 mi WSW 3.5 mph - N/A   Clear
7:15 AM 32.0 °F 26.4 °F 32.0 °F 100% 30.26 in 10.0 mi WSW 5.8 mph - N/A   Clear
7:35 AM 33.8 °F 29.6 °F 32.0 °F 93% 30.26 in 10.0 mi SW 4.6 mph - N/A   Clear
7:55 AM 35.6 °F 32.8 °F 32.0 °F 87% 30.26 in 10.0 mi WSW 3.5 mph - N/A   Clear
8:15 AM 37.4 °F 34.9 °F 32.0 °F 81% 30.27 in 10.0 mi WSW 3.5 mph - N/A   Clear
8:35 AM 41.0 °F 38.0 °F 33.8 °F 76% 30.28 in 10.0 mi West 4.6 mph - N/A   Clear
8:55 AM 42.8 °F 38.6 °F 33.8 °F 70% 30.28 in 10.0 mi WSW 6.9 mph - N/A   Clear
9:15 AM 44.6 °F 42.2 °F 35.6 °F 71% 30.29 in 10.0 mi WSW 4.6 mph - N/A   Clear
9:35 AM 50.0 °F - 37.4 °F 62% 30.29 in 10.0 mi West 5.8 mph - N/A   Clear
10:15 AM 55.4 °F - 35.6 °F 47% 30.29 in 10.0 mi WNW 10.4 mph 18.4 mph N/A   Clear
10:35 AM 55.4 °F - 35.6 °F 47% 30.28 in 10.0 mi WNW 12.7 mph 19.6 mph N/A   Clear
11:15 AM 59.0 °F - 35.6 °F 42% 30.27 in 10.0 mi WNW 12.7 mph 18.4 mph N/A   Clear
11:35 AM 59.0 °F - 35.6 °F 42% 30.28 in 10.0 mi NW 18.4 mph 24.2 mph N/A   Clear
11:55 AM 57.2 °F - 35.6 °F 44% 30.28 in 10.0 mi NW 13.8 mph 18.4 mph N/A   Clear
12:15 PM 57.2 °F - 35.6 °F 44% 30.29 in 10.0 mi NW 16.1 mph 23.0 mph N/A   Clear
12:35 PM 55.4 °F - 35.6 °F 47% 30.29 in 10.0 mi NW 15.0 mph 23.0 mph N/A   Clear
12:55 PM 57.2 °F - 35.6 °F 44% 30.28 in 10.0 mi WNW 12.7 mph 20.7 mph N/A   Clear
1:15 PM 57.2 °F - 35.6 °F 44% 30.27 in 10.0 mi WNW 16.1 mph 27.6 mph N/A   Clear
1:35 PM 59.0 °F - 35.6 °F 42% 30.26 in 10.0 mi WNW 12.7 mph 19.6 mph N/A   Clear
1:55 PM 59.0 °F - 35.6 °F 42% 30.25 in 10.0 mi WNW 10.4 mph 21.9 mph N/A   Clear
2:15 PM 60.8 °F - 35.6 °F 39% 30.24 in 10.0 mi NNW 16.1 mph 23.0 mph N/A   Clear
2:35 PM 60.8 °F - 33.8 °F 36% 30.24 in 10.0 mi WNW 12.7 mph 23.0 mph N/A   Clear
2:55 PM 60.8 °F - 33.8 °F 36% 30.24 in 10.0 mi NW 11.5 mph 21.9 mph N/A   Clear
3:15 PM 60.8 °F - 32.0 °F 34% 30.24 in 10.0 mi NW 9.2 mph 20.7 mph N/A   Clear
3:35 PM 60.8 °F - 32.0 °F 34% 30.24 in 10.0 mi NW 13.8 mph 20.7 mph N/A   Clear
3:55 PM 60.8 °F - 32.0 °F 34% 30.25 in 10.0 mi NW 13.8 mph 17.3 mph N/A   Clear
4:15 PM 59.0 °F - 30.2 °F 34% 30.25 in 10.0 mi NW 12.7 mph 16.1 mph N/A   Clear
4:35 PM 59.0 °F - 28.4 °F 31% 30.26 in 10.0 mi NNW 11.5 mph 19.6 mph N/A   Clear
4:55 PM 59.0 °F - 26.6 °F 29% 30.26 in 10.0 mi NW 13.8 mph 17.3 mph N/A   Clear
5:15 PM 57.2 °F - 26.6 °F 31% 30.27 in 10.0 mi NW 9.2 mph - N/A   Clear
5:35 PM 55.4 °F - 28.4 °F 36% 30.27 in 10.0 mi NW 8.1 mph - N/A   Clear
5:55 PM 53.6 °F - 28.4 °F 38% 30.28 in 10.0 mi NW 6.9 mph - N/A   Clear
6:15 PM 51.8 °F - 26.6 °F 38% 30.29 in 10.0 mi NNW 4.6 mph - N/A   Clear
6:35 PM 50.0 °F - 26.6 °F 40% 30.30 in 10.0 mi NNW 3.5 mph - N/A   Clear
6:55 PM 48.2 °F - 26.6 °F 43% 30.31 in 10.0 mi NNW 5.8 mph - N/A   Clear
7:15 PM 50.0 °F - 24.8 °F 37% 30.32 in 10.0 mi North 4.6 mph - N/A   Clear
7:35 PM 48.2 °F - 24.8 °F 40% 30.32 in 10.0 mi NNW 4.6 mph - N/A   Clear
7:55 PM 44.6 °F 42.2 °F 26.6 °F 49% 30.33 in 10.0 mi North 4.6 mph - N/A   Clear
8:15 PM 44.6 °F 43.1 °F 26.6 °F 49% 30.33 in 10.0 mi North 3.5 mph - N/A   Clear
8:35 PM 41.0 °F 38.0 °F 28.4 °F 61% 30.34 in 10.0 mi North 4.6 mph - N/A   Clear
8:55 PM 42.8 °F 41.1 °F 26.6 °F 53% 30.34 in 10.0 mi North 3.5 mph - N/A   Clear
9:15 PM 42.8 °F 41.1 °F 24.8 °F 49% 30.34 in 10.0 mi North 3.5 mph - N/A   Clear
9:35 PM 44.6 °F 41.4 °F 23.0 °F 43% 30.35 in 10.0 mi North 5.8 mph - N/A   Clear
9:55 PM 42.8 °F 41.1 °F 21.2 °F 42% 30.35 in 10.0 mi North 3.5 mph - N/A   Clear
10:15 PM 42.8 °F 41.1 °F 21.2 °F 42% 30.36 in 10.0 mi North 3.5 mph - N/A   Clear
10:35 PM 42.8 °F 40.1 °F 21.2 °F 42% 30.36 in 10.0 mi North 4.6 mph - N/A   Clear
10:55 PM 41.0 °F 38.0 °F 21.2 °F 45% 30.36 in 10.0 mi NNE 4.6 mph - N/A   Clear
11:15 PM 41.0 °F 37.1 °F 21.2 °F 45% 30.36 in 10.0 mi NNE 5.8 mph - N/A   Clear
11:35 PM 37.4 °F 33.8 °F 21.2 °F 52% 30.37 in 10.0 mi NNE 4.6 mph - N/A   Clear
11:55 PM 37.4 °F 33.8 °F 21.2 °F 52% 30.36 in 10.0 mi NNE 4.6 mph - N/A   Clear